www.pogodaiklimat.ru

Архив погоды в Тазовском (Ямало-Ненецкий АО, Россия)

Время
(UTC), дата
12 27.11
15 27.11
18 27.11
21 27.11
00 28.11
03 28.11
06 28.11
09 28.11
12 28.11
15 28.11
18 28.11
03 29.11
06 29.11
09 29.11
12 29.11
15 29.11
18 29.11
21 29.11
00 30.11
03 30.11
06 30.11
09 30.11
12 30.11
15 30.11
18 30.11
21 30.11
00 1.12
03 1.12
06 1.12
09 1.12
12 1.12
15 1.12
18 1.12
21 1.12
00 2.12
03 2.12
06 2.12
09 2.12
12 2.12
15 2.12
18 2.12
21 2.12
00 3.12
03 3.12
06 3.12
09 3.12
12 3.12
15 3.12
18 3.12
21 3.12
00 4.12
03 4.12
Ветер
(напр.,м/с)
Видим. Явления Облачность Т
(С)
Тd
(С)
f
(%)
Тe
(С)
Тes
(С)
Комфортность P
(гПа)
Po
(гПа)
Тmin
(С)
Tmax
(С)
R
(мм)
R24
(мм)
S
(см)
ЮЗ 5
{11}
4000 м слаб. ливневой снег [диам. изморози 2 мм] 10/6 450 м
[Cb calv Ac As]
-10.8 -12.1 90 -19 -19 1034.8 1031.1
ЮЗ 7-11
{11}
2000 м ливневой снег {метель} [диам. изморози 0 мм] 10/6 210 м
[Cb calv Ac As]
-12.0 -13.5 89 -21 -21 1035.0 1031.3 -9.7 1
ЮЗ 7
{11}
20 км слаб. ливневой снег {метель} 10/6 240 м
[Cb calv Ac As]
-13.5 -15.1 88 -23 -23 1035.5 1031.7
ЮЗ 6 20 км слаб. ливневой снег 10/6 210 м
[Cb calv Ac As]
-14.4 -16.2 86 -24 -24 1036.1 1032.4
ЮЗ 5 20 км слаб. ливневой снег 10/8 210 м
[Cb calv Ac As]
-14.5 -16.3 86 -23 -23 1036.4 1032.7
ЮЗ 5 2000 м ливневой снег 10/8 150 м
[Cb calv Ac As]
-13.6 -15.3 87 -22 -22 1036.7 1033.0 -14.6 0.6 14
ЮЗ 6 2000 м ливневой снег 10/8 120 м
[Cb calv Ac As]
-13.4 -15.1 87 -23 -23 1036.9 1033.2
ЮЗ 6 10 км слаб. ливневой снег 10/6 150 м
[Cb calv Ac As]
-13.3 -15.0 87 -22 -22 1037.3 1033.5
ЮЗ 6 20 км слаб. ливневой снег 10/8 150 м
[Cb calv Ac As]
-12.9 -14.4 88 -22 -22 1037.3 1033.5
ЮЗ 6 20 км слаб. ливневой снег 10/10 150 м
[Cb calv]
-12.3 -13.8 89 -21 -21 1037.3 1033.6 -12.2 1
ЮЗ 5 20 км слаб. снег {ливн. снег} 10/0
[Ac As]
-12.6 -14.2 88 -21 -21 1037.5 1033.8
Ю 3 4000 м слаб. снег 10/5 210 м
[Frnb Ac As]
-15.2 -17.1 85 -22 -22 1038.9 1035.1 -15.2 3 17
Ю 3 4000 м слаб. снег 10/5 210 м
[Frnb Ac As]
-15.0 -16.9 85 -22 -22 1040.1 1036.3
Ю 2 4000 м слаб. снег 10/0
[Ac As]
-14.9 -16.9 85 -20 -20 1041.4 1037.6
Ю 2 4000 м слаб. снег 10/10 150 м
[Frnb Ns]
-15.1 -17.1 85 -20 -20 1042.4 1038.6
Ю 2 20 км слаб. снег 10/0
[Ac As]
-16.5 -18.5 84 -22 -22 1043.1 1039.2 -14.8 3
Ю 2 20 км слаб. снег 10/0
[Cs]
-18.5 -20.5 84 -24 -24 1044.0 1040.1
Ю 2 20 км слаб. снег 10/0
[Cs]
-19.9 -21.8 85 -26 -26 1044.7 1040.8
ЮВ 1 20 км слаб. снег 10/0
[Cs]
-20.3 -22.5 83 -23 -23 1045.6 1041.7
Ю 2 20 км {снег} [диам. изморози 2 мм] 9/0
[Ac trans]
-17.8 -19.7 85 -23 -23 1046.0 1042.1 -21.2 0.3 18
ЮВ 1 50 км {снег} [диам. изморози 2 мм] 3/0
[Ac trans Ci fib]
-20.0 -22.2 83 -23 -23 1046.3 1042.4 -21.3
ЮЗ 2 20 км [диам. изморози 4 мм] 3/0
[Ci fib]
-19.7 -21.7 84 -25 -25 1047.0 1043.2
З 1 2000 м дымка [диам. изморози 7 мм] 5/5 120 м
[St]
-22.6 -25.0 81 -26 -26 1047.1 1043.2
З 1 20 км [диам. изморози 9 мм] 3/0
[Ci fib]
-24.1 -26.6 80 -28 -28 1046.7 1042.7 -17.2
З 1 20 км ясно -24.5 -27.1 79 -28 -28 1046.3 1042.3
З 1 20 км ясно -24.5 -27.0 80 -28 -28 1045.8 1041.8
ЮЗ 1 20 км [диам. изморози 11 мм] 10/10 150 м
[St]
-20.0 -22.2 83 -23 -23 1045.6 1041.7
З 4 4000 м слаб. ливневой снег [диам. изморози 10 мм] 9/6 930 м
[Cb calv Ci fib]
-16.9 -18.8 85 -25 -25 1045.4 1041.5 -25.9 0.2 20
З 5 20 км слаб. ливневой снег [диам. изморози 8 мм] 6/4 1000 м
[Cb calv Ci fib]
-16.2 -18.0 86 -25 -25 1044.9 1041.1
З 5 10 км слаб. ливневой снег [диам. изморози 4 мм] 9/6 960 м
[Cb calv Ac trans Ci fib]
-14.1 -15.8 87 -23 -23 1045.1 1041.3
З 5 20 км слаб. ливневой снег [диам. изморози 3 мм] 10/6 900 м
[Cb calv Ac As]
-13.4 -15.0 88 -22 -22 1045.1 1041.3
З 6 20 км слаб. ливневой снег [диам. изморози 2 мм] 10/6 800 м
[Cb calv Ac As]
-13.7 -15.4 87 -23 -23 1044.3 1040.6 -12.7 0.5
З 6 20 км слаб. ливневой снег [диам. изморози 2 мм] 10/8 180 м
[Cb calv Ac As]
-13.8 -15.5 87 -23 -23 1043.7 1039.9
ЮЗ 7
{10}
20 км слаб. снег {ливн. снег} [диам. изморози 1 мм] 10/0
[Ac As]
-19.4 -21.5 83 -31 -31 опасность
обморожения
1042.4 1038.5
З 8
{10}
20 км {ливн. снег, снег} [диам. изморози 0 мм] 10/0
[Cs]
-23.6 -26.0 81 -37 -37 опасность
обморожения
1041.4 1037.5
ЮЗ 8
{10}
20 км ясно -25.1 -27.7 79 -39 -39 опасность
обморожения
1039.4 1035.5 -25.3 0.3 21
ЮЗ 7
{10}
50 км 3/0
[Ci fib]
-25.5 -28.1 79 -39 -39 опасность
обморожения
1038.2 1034.2 -26.0
ЮЗ 7
{10}
20 км 3/0
[Ci fib]
-24.7 -27.2 80 -38 -38 опасность
обморожения
1036.6 1032.7
ЮЗ 6
{10}
4000 м мгла {снег} 10/5 150 м
[St Ac As]
-20.3 -22.5 83 -31 -31 опасность
обморожения
1034.3 1030.4
З 8
{10}
20 км слаб. снег {метель} [диам. изморози 3 мм] 10/5 150 м
[Frnb Ac As]
-16.3 -18.1 86 -28 -28 1031.7 1027.9 -16.3 0.3
З 8-10
{11}
1000 м снег {метель} [диам. изморози 0 мм] 10/10 90 м
[Frnb Ns]
-12.3 -13.8 89 -22 -22 1029.3 1025.6
З 7
{11}
2000 м снег [диам. гололёда 2 мм] 10/10 90 м
[Frnb Ns]
-8.5 -9.6 92 -18 -18 1026.8 1023.2
З 5
{11}
20 км слаб. ливневой снег [диам. гололёда 2 мм] 10/10 240 м
[Cb calv]
-5.1 -5.8 95 -12 -12 1025.4 1021.8
З 4 20 км слаб. ливневой снег [диам. гололёда 2 мм] 10/8 300 м
[Cb calv Ac As]
-4.4 -5.0 96 -11 -11 1024.4 1020.8 -16.3 2 21
СЗ 2 2000 м ливневой снег [диам. гололёда 2 мм] 10/10 150 м
[Cb calv]
-3.3 -3.8 96 -8 -8 1023.7 1020.1
С 4 2000 м дымка {ливн. снег} [диам. гололёда 2 мм] 10/10 180 м
[St]
-10.0 -11.3 90 -17 -17 1025.6 1021.9
С 3 20 км слаб. снег {ливн. снег} [диам. гололёда 2 мм] 10/6 240 м
[Frnb Ac As]
-12.5 -14.0 89 -19 -19 1027.4 1023.7
СВ 3 20 км {снег} [диам. гололёда 2 мм] 5/5 360 м
[Sc]
-13.9 -15.5 88 -20 -20 1029.6 1025.8 -3.1 2
С 2 20 км {ливн. снег, снег} [диам. гололёда 2 мм] 6/0
[Ac trans]
-18.0 -20.0 84 -23 -23 1032.2 1028.4
С 1 20 км ясно -19.4 -21.5 83 -22 -22 1033.9 1030.1
З 1 1000 м дымка [диам. сложн. отлож. 3 мм] 10/10 90 м
[St]
-19.3 -21.4 83 -22 -22 1035.0 1031.2
З 2 200 м переохл. туман [диам. сложн. отлож. 6 мм] ?/? -15.9 -17.7 86 -21 -21 1034.9 1031.1 -20.5 0.0 24
Местоположение метеостанции Тазовский (Ямало-Ненецкий АО, Россия): широта 67.47 долгота 78.73 высота над уровнем моря 28 м.
В архиве по умолчанию представлена погода в Тазовском за последнюю неделю. Архивные данные за месяц целиком и за предыдущие месяцы, начиная с января 2011 года, Вы можете получить, выбрав интересующий диапазон дат из раскрывающегося списка и нажав кнопку "Найти!".
*Определитесь, кто Вы:
Внимание! Время в таблицах - всемирное. Для получения местного времени необходимо прибавить поправку, которая равна 5 ч.
Смотрите также архив погоды в соседних городах и на ближайших метеорологических станциях:
Партнеры нашего сайта:      
Пояснения к столбцам:
  • Ветер - указаны скорость ветра в м/с - средняя за 10 мин, порывы в срок и между сроками (в фигурных скобках) и направление, откуда дует ветер: С - северный,
  • СВ - северо-восточный, В - восточный, ЮВ - юго-восточный, Ю - южный, ЮЗ - юго-западный, З - западный, СЗ - северо-западный.
  • Видимость - горизонтальная дальность видимости в метрах или километрах. При видимости от 1 до 10 км при отсутствии осадков обычно наблюдается дымка, при ухудшении видимости до 1 км и менее - туман. В сухую погоду видимость может ухудшаться дымом, пылью или мглою.
  • Явления - указаны атмосферные явления, наблюдавшиеся в срок или в последний час перед сроком; фигурными скобками обозначены явления, наблюдавшиеся между сроками (за 1-3 часа до срока); квадратными скобками обозначены град или гололедные отложения с указанием их диаметра в мм.
  • Облачность - указаны через наклонную черту общая и нижняя облачность в баллах и высота нижней границы облаков в метрах; квадратными скобками обозначены формы облаков: Ci - перистые, Cs - перисто-слоистые, Cc - перисто-кучевые, Ac - высококучевые, As - высокослоистые, Sc - слоисто-кучевые, Ns - слоисто-дождевые, Cu - кучевые, Cb - кучево-дождевые. Подробнее классификацию облаков см. в Атласе облаков (PDF).
  • T - Температура воздуха - температура, измеренная на высоте 2 м над землей.
  • Td - Температура точки росы - температура, при понижении до которой содержащийся в воздухе водяной пар достигнет насыщения.
  • f - Относительная влажность воздуха - влажноcть воздуха, измеренная на высоте 2 м над землей.
  • Te - Эффективная температура - температура, которую ощущает одетый по сезону человек в тени. Характеристика душности погоды. При расчете учитывается влияние влажности воздуха и скорости ветра на теплоощущения человека.
  • Tes - Эффективная температура на солнце - температура, которую ощущает человек, с поправкой на солнечный нагрев. Характеристика знойности погоды. Зависит от высоты солнца над горизонтом, облачности и скорости ветра. Ночью, в пасмурную погоду, а также при ветре 12 м/с и более поправка равна нулю.
  • P - Атмосферное давление - приведенное к уровню моря атмосферное давление.
  • Po - Атмосферное давление - измеренное на уровне метеостанции атмосферное давление.
  • Tmin - Минимальная температура - минимум температуры воздуха на высоте 2 м над землей.
  • Tmax - Максимальная температура - максимум температуры воздуха на высоте 2 м над землей.
  • R - Количество осадков - Количество выпавших осадков за период времени, мм. При наведении курсора мыши на число - период времени, за который выпало указанное количество осадков.
  • R24 - Количество осадков - Количество выпавших осадков за 24 часа, мм.
  • S - Снежный покров - Высота снежного покрова, см. При наведении курсора мыши на число - состояние снежного покрова и степень покрытия местности в баллах.